Regional Weather Roundup
Issued by NWS Sioux Falls, SD

Home | Current Version | Previous Version | Text Only | Print | Product List | Glossary On
Versions: 1 2 3 4 5 6 7 8 9 10 11 12 13 14 15 16 17 18 19 20 21 22 23 24 25 26 27 28 29 30 31 32 33 34 35 36 37 38 39 40 41 42 43 44 45 46 47 48 49 50
335
ASUS43 KFSD 221710
RWRFSD

WEATHER ROUNDUP FOR SE SOUTH DAKOTA/SW MINNESOTA/NW IOWA
NATIONAL WEATHER SERVICE SIOUX FALLS SD
1100 AM CST SUN JAN 22 2017

NOTE: "FAIR" INDICATES FEW OR NO CLOUDS BELOW 12,000 FEET WITH NO
SIGNIFICANT WEATHER AND OR OBSTRUCTIONS TO VISIBILITY.


SDZ038>040-050-052>070-221800-
SOUTHEAST SOUTH DAKOTA

CITY           SKY/WX    TMP DP  RH WIND       PRES   REMARKS
BROOKINGS      CLOUDY    30  29  96 W13       29.76S FOG     WCI  20
CHAMBERLAIN    SUNNY     30  27  90 W9        29.86R WCI  22
HURON          CLOUDY    25  25 100 NW12      29.83R FOG     WCI  14
MADISON        CLOUDY    28  28 100 NW14        N/A  WCI  17
MITCHELL       SUNNY     30  26  85 N13       29.84R WCI  20
SIOUX FALLS    CLOUDY    32  31  96 NW12      29.78S FOG     WCI  23
WINNER         FAIR      34  28  79 NW13      29.85R WCI  25
YANKTON        CLOUDY    28  27  93 NW10      29.83R WCI  19
$$

MNZ071-072-080-081-089-090-097-098-221800-
SOUTHWEST MINNESOTA

CITY           SKY/WX    TMP DP  RH WIND       PRES   REMARKS
FAIRMONT       CLOUDY    35  35 100 NW9       29.74R FOG     WCI  28
JACKSON        FOG       32  32 100 NW12      29.74R VSB 3/4 WCI  23
LUVERNE        CLOUDY    34  30  86 NW9       29.77R WCI  26
MARSHALL       CLOUDY    36  34  92 NW14      29.77R FOG
MONTEVIDEO     CLOUDY    34  34 100 N8        29.79R FOG     WCI  27
PIPESTONE      CLOUDY    34  34 100 NW12      29.75R FOG     WCI  25
REDWOOD FALLS  CLOUDY    35  34  96 NW10      29.75R WCI  27
TRACY          CLOUDY    36  36 100 N10       29.76R FOG
WINDOM         FOG       36  36 100 NW14      29.74R VSB 1/2
WORTHINGTON    MIX PCPN  35  34  96 NW13      29.75R FOG     WCI  26
$$

IAZ001>003-012>014-020>022-031-032-NEZ013-014-SDZ071-221800-
NORTHWEST IOWA

CITY           SKY/WX    TMP DP  RH WIND       PRES   REMARKS
CHEROKEE       CLOUDY    35  34  98 NW8       29.77R FOG     WCI  28
DENISON        CLOUDY    34  32  93 N9        29.75R FOG     WCI  26
ESTHERVILLE    CLOUDY    34  34 100 NW14      29.73R FOG     WCI  25
LE MARS        CLOUDY    36  32  87 NW8       29.80R
ORANGE CITY    CLOUDY    34  34 100 NW8       29.78R FOG     WCI  27
SHELDON        CLOUDY    34  34 100 NW8       29.76R FOG     WCI  27
SIOUX CITY     CLOUDY    36  32  85 NW15      29.79R
SPENCER          N/A    N/A N/A N/A MISG      29.75R
STORM LAKE     LGT SNOW  34  32  93 NW10      29.75R WCI  26
$$

ABBREVIATIONS USED IN REMARKS
   TC - TEMPERATURE IN CELSIUS
  WCI - WIND CHILL INDEX
   HX - HEAT INDEX
  VSB - VISIBILITY





USA.gov is the U.S. government's official web portal to all federal, state and local government web resources and services.